Theta_e
272 274 275 274 275 276 275 278 276 279 279 283 283 283 283 282 282 281 280 282 284 285 285 285 285 285 286 286 287 287 286 285 285 285 285 285 284 284 283 283 282 281 281 280
269 275 275 274 277 278 279 281 281 282 279 284 285 285 282 280 280 279 280 281 283 284 284 284 284 284 285 285 285 286 285 284 285 285 284 283 283 282 281 280 280 280 280 279
262 272 272 268 278 280 281 283 282 278 280 283 282 282 281 280 280 279 280 280 281 282 283 283 284 285 284 284 285 285 284 284 283 283 281 281 280 280 279 279 279 279 279 280
263 265 261 277 279 281 282 283 284 281 280 282 282 284 283 282 280 279 279 280 281 282 282 283 283 283 284 284 284 283 282 282 282 281 280 280 279 279 279 279 279 279 279 279
262 261 269 277 279 279 279 281 282 279 281 282 283 285 283 282 282 280 280 281 281 282 282 283 283 283 282 282 282 281 280 280 281 280 279 279 278 278 279 279 279 279 279 279
259 263 257 274 279 283 284 277 282 280 280 280 283 277 279 281 282 281 281 281 281 281 281 282 281 282 281 280 280 279 279 280 280 280 280 279 279 278 279 279 278 278 278 278
261 262 265 276 279 283 275 278 282 280 280 281 280 282 282 282 281 282 281 281 281 280 279 280 281 280 278 278 277 279 279 279 279 279 278 278 277 277 277 276 276 276 276 276
267 261 262 278 280 277 281 283 280 279 281 280 283 284 282 281 281 281 280 280 280 279 278 279 281 280 277 276 278 278 278 277 277 277 277 277 276 276 276 275 274 274 273 273
269 270 278 282 283 283 283 280 280 279 281 281 284 282 282 281 281 280 280 280 279 278 278 278 279 279 276 276 277 277 276 276 276 276 277 276 275 274 274 274 273 272 273 272
275 276 279 282 282 282 281 281 281 281 281 282 283 282 281 281 281 280 280 279 279 277 276 276 277 277 277 276 276 275 274 274 275 274 274 275 275 275 274 272 271 272 272 271
272 276 278 280 280 281 281 280 280 281 281 281 283 281 281 280 280 279 279 279 278 276 276 275 276 276 276 276 276 275 274 274 274 274 273 273 273 272 272 272 273 271 269 270
272 276 276 278 278 280 280 279 279 279 279 280 282 281 280 279 279 279 278 278 277 277 277 275 274 274 274 274 275 274 273 273 273 273 274 274 274 274 279 278 278 277 276 272
275 275 277 277 277 276 277 276 275 275 274 277 278 280 279 277 277 278 278 278 277 277 277 277 276 272 271 271 271 272 272 271 271 272 273 273 272 273 272 277 279 278 278 277
275 277 275 277 276 277 276 274 272 269 268 269 275 276 277 276 276 277 277 277 278 278 278 277 277 275 273 273 270 269 269 269 269 269 268 267 266 266 269 271 269 266 272 273
274 272 273 272 271 268 267 268 267 268 266 267 271 276 277 277 276 276 277 277 278 278 277 277 277 276 275 267 268 268 270 268 267 266 264 265 265 264 263 262 260 257 257 263
269 264 264 268 268 265 264 263 267 265 262 263 264 274 277 277 276 276 277 278 277 276 276 276 276 274 275 269 270 272 269 267 266 264 263 263 263 263 260 258 255 254 253 253
267 267 263 264 266 265 267 266 267 267 264 266 268 264 276 276 275 275 274 275 276 275 275 275 274 273 274 276 275 271 263 262 264 262 263 261 260 260 259 256 254 251 252 252
264 263 272 271 271 269 263 264 260 262 264 265 263 262 272 276 276 274 272 270 270 268 267 259 264 272 274 275 273 270 267 260 259 259 257 259 259 259 257 255 252 252 253 253
260 263 259 263 263 267 267 265 263 260 260 264 263 265 266 276 275 272 267 261 260 263 268 267 269 269 270 269 269 267 263 260 258 256 256 257 255 254 255 254 252 250 251 252
259 255 256 256 253 257 259 256 262 260 258 263 262 262 261 270 271 268 260 261 261 261 253 260 257 258 257 262 265 261 261 261 261 259 258 258 258 257 256 255 255 255 252 253
267 263 261 261 257 254 257 262 264 263 260 262 265 265 265 258 256 258 256 260 261 256 253 255 255 256 256 258 259 258 258 258 259 260 260 260 259 258 257 256 256 256 256 257
264 264 262 260 261 258 254 257 261 262 262 261 259 261 260 257 253 253 256 262 256 256 255 255 255 257 257 261 257 256 256 257 258 259 259 258 258 257 257 256 257 258 258 257
264 263 262 262 262 262 254 255 259 264 263 263 263 262 263 265 262 261 264 261 258 257 257 256 256 260 260 256 256 257 257 257 257 257 256 256 256 256 256 257 257 257 257 257
262 262 259 257 258 258 261 260 256 258 260 259 259 260 261 260 258 260 255 257 258 262 259 258 262 267 260 256 256 256 256 257 257 256 255 256 255 256 256 255 256 255 254 253
263 260 258 259 263 265 261 260 257 255 256 257 256 256 258 257 263 260 258 257 261 259 259 262 266 267 258 256 257 257 257 256 256 255 255 255 255 255 256 256 256 255 254 255
263 264 264 263 265 264 262 263 266 261 259 259 256 258 258 257 257 257 257 258 258 259 258 258 259 260 258 257 256 256 256 255 256 255 254 254 254 253 253 253 254 255 256 257
257 258 257 258 255 259 263 265 264 264 263 264 264 259 259 258 256 257 258 258 258 258 258 257 258 259 258 257 257 256 256 255 256 256 254 254 254 254 254 256 256 255 256 256
Wind_Speed
11 20 17 18 19 18 10 12 6 13 22 23 24 23 15 16 16 17 17 15 13 10 6 6 8 8 10 13 13 17 21 20 19 20 20 21 21 19 17 16 15 14 13 10
8 4 0 15 14 13 14 14 11 13 21 21 24 19 13 17 16 16 16 15 14 11 9 8 9 10 11 13 14 17 20 22 21 21 20 21 20 18 17 16 13 11 13 13
8 10 14 4 4 4 5 11 6 9 20 21 24 21 13 18 15 15 15 14 14 13 12 12 10 9 14 15 15 19 21 20 20 21 21 18 18 18 16 12 12 12 13 14
7 11 5 5 7 7 7 15 2 10 16 17 18 18 10 16 14 14 15 14 14 13 14 14 14 13 12 14 16 18 20 19 19 21 21 18 18 15 13 11 10 10 13 12
1 2 10 6 1 3 1 5 2 12 16 17 19 12 3 17 14 12 13 11 12 13 13 15 14 14 16 17 17 18 20 19 18 18 19 17 17 13 11 12 11 12 11 11
2 1 5 5 0 3 3 5 3 9 14 17 16 13 8 17 13 12 12 11 12 14 15 15 13 15 17 17 19 18 17 17 15 15 16 16 15 12 11 12 12 10 11 10
4 6 11 13 6 1 4 6 9 6 9 12 7 5 8 11 12 10 11 13 12 15 14 13 12 18 18 17 18 15 16 15 14 14 14 13 13 11 11 11 11 11 11 7
4 2 10 7 1 3 4 3 3 5 5 9 8 8 9 10 11 11 12 13 13 14 13 12 13 17 15 16 11 12 12 13 13 12 10 10 13 10 11 11 11 9 9 7
12 11 6 4 5 2 4 2 2 3 4 5 7 8 7 6 8 9 10 10 9 10 12 11 11 11 15 9 9 12 13 12 12 11 10 8 10 10 8 8 7 7 6 5
1 6 14 14 6 4 5 3 3 2 2 4 4 5 5 5 5 6 7 8 7 9 11 10 9 10 11 9 10 12 12 11 8 10 9 8 6 5 6 6 6 6 6 5
7 11 11 15 7 6 5 3 3 3 2 2 2 4 3 4 4 5 5 6 7 8 7 8 7 9 8 7 10 12 10 9 9 7 7 6 5 4 5 4 4 5 2 4
9 7 3 3 0 5 6 5 4 4 3 1 2 5 3 4 3 3 5 5 6 7 7 6 6 6 6 5 7 11 10 7 6 6 6 6 7 7 13 12 12 13 12 7
4 3 4 2 3 3 6 5 2 4 2 4 1 3 3 2 2 4 4 6 5 5 6 6 7 6 4 5 5 6 9 7 5 6 6 7 6 7 9 10 15 13 11 8
3 5 0 4 5 6 6 5 5 4 2 1 1 2 4 3 2 4 4 4 5 5 6 6 6 6 4 5 6 6 6 5 4 3 4 4 3 3 3 6 5 2 6 6
8 3 2 3 5 3 3 4 3 4 2 2 1 3 4 5 4 4 4 5 6 6 5 5 6 6 5 5 6 6 5 3 4 4 4 4 4 3 3 3 2 2 3 4
8 6 2 3 6 5 4 1 5 4 3 2 3 5 4 5 4 4 3 4 6 5 4 5 5 3 4 6 6 5 4 7 6 5 4 3 3 4 4 3 2 2 1 2
7 3 3 5 8 7 10 5 5 5 5 6 7 4 5 6 5 4 4 3 4 5 3 3 3 2 1 3 5 3 3 2 5 5 6 5 4 4 3 3 3 2 2 2
4 2 8 6 8 8 6 8 5 6 6 6 7 6 5 6 5 5 4 4 5 4 2 1 2 2 3 4 5 4 5 4 3 3 2 3 4 5 5 5 4 3 3 3
6 4 4 5 4 6 6 8 8 5 6 8 9 8 5 3 5 5 6 5 4 5 5 3 3 3 4 4 5 5 5 6 5 4 3 4 2 2 4 4 4 3 4 3
6 2 4 4 2 4 5 3 8 7 5 8 7 6 6 6 5 6 3 5 5 3 2 3 3 4 4 4 7 4 5 6 6 5 5 4 4 4 3 4 4 4 3 3
11 8 6 6 5 3 4 6 9 8 7 6 9 9 7 4 3 5 4 3 5 4 2 0 2 2 2 3 3 3 3 3 3 3 3 3 3 3 3 3 3 3 3 3
7 8 8 7 6 5 3 5 6 8 8 7 5 7 7 6 4 2 4 5 2 5 4 3 3 5 4 5 3 3 4 4 3 3 4 4 3 4 5 5 6 5 4 4
8 7 6 8 7 6 4 3 4 8 9 8 9 9 7 6 6 6 4 4 4 5 3 3 4 5 6 4 4 4 4 4 4 3 3 4 4 4 4 4 3 2 3 4
7 6 4 5 6 5 6 6 4 4 4 3 3 4 5 3 2 4 2 1 3 7 4 4 5 7 5 2 2 3 3 5 5 4 4 4 3 3 3 3 3 2 2 4
7 7 7 7 8 7 5 7 5 3 4 4 4 4 5 2 4 3 4 3 6 5 4 6 7 6 4 3 3 3 2 2 3 3 3 3 3 3 3 3 4 4 4 4
9 8 7 7 4 5 5 7 6 5 5 4 3 4 4 3 2 3 4 5 4 4 2 3 2 3 3 3 3 3 3 3 4 4 3 3 3 3 4 3 4 4 5 5
4 5 4 1 1 2 4 5 5 7 7 5 4 4 4 3 2 2 2 3 3 4 4 2 2 3 4 4 5 5 5 4 5 4 3 4 4 4 4 4 5 5 5 5
Wind_Direction
249 264 273 268 275 286 291 269 271 296 303 319 326 325 327 332 332 336 338 340 345 348 357 20 48 46 71 88 101 110 109 109 111 111 113 111 109 110 110 111 109 115 115 124
290 287 28 287 272 259 265 286 276 299 314 331 320 326 351 347 346 347 345 351 2 6 21 35 65 72 77 87 96 107 107 110 113 112 110 107 108 108 106 107 111 126 122 111
272 320 312 349 254 250 275 270 292 334 313 319 325 332 8 351 357 353 356 4 13 24 34 36 45 78 92 92 98 100 105 106 107 108 104 101 103 106 107 116 118 117 109 104
283 332 12 247 295 249 257 282 282 300 310 325 322 324 26 3 358 2 4 11 23 33 39 45 50 60 76 88 96 99 98 101 103 103 104 107 105 100 102 100 104 101 95 99
308 245 290 295 39 338 320 298 25 318 330 332 333 313 48 8 3 12 13 19 34 38 45 52 58 67 74 77 83 90 89 92 97 104 104 105 102 107 108 107 103 100 101 102
34 337 239 250 129 317 178 290 17 347 339 338 341 12 347 351 358 14 28 31 38 42 47 53 59 71 72 76 77 76 83 86 90 97 99 100 107 110 110 104 103 101 93 82
213 266 282 254 270 200 51 289 347 346 340 341 360 2 329 346 6 19 32 36 42 51 51 47 65 73 66 71 69 77 77 80 86 91 98 101 103 103 106 105 100 94 92 84
166 214 284 194 219 163 232 303 316 324 343 332 351 14 2 7 12 18 29 34 41 54 48 45 62 77 75 72 73 82 90 91 90 92 97 99 103 103 103 105 106 106 106 89
186 215 251 232 210 146 178 226 324 297 334 330 5 18 13 13 20 28 34 41 44 63 64 52 63 84 88 80 89 89 84 81 85 87 86 90 104 106 102 103 109 112 108 108
145 264 239 253 262 214 182 203 130 228 333 354 23 16 24 36 35 45 41 45 43 61 64 62 54 72 84 90 94 90 88 85 81 81 78 72 76 90 113 111 115 119 124 135
269 282 276 270 229 186 168 138 141 141 70 2 86 62 52 68 55 60 64 57 55 66 70 64 69 71 77 86 100 93 89 86 82 79 87 87 71 85 83 62 111 126 103 130
218 224 169 237 95 114 139 159 161 142 142 81 78 104 94 83 71 70 88 82 75 76 81 68 68 72 72 71 101 111 106 104 114 118 111 109 108 101 94 108 119 127 138 137
197 180 195 96 181 128 138 149 139 123 94 153 106 108 90 51 33 82 86 97 93 89 90 88 87 72 38 67 82 99 120 125 119 117 123 125 122 130 129 122 128 131 134 136
178 126 219 206 217 154 128 121 116 106 87 109 157 101 110 99 87 89 90 102 101 91 85 89 86 74 47 85 87 77 78 81 105 91 102 96 82 77 113 149 146 91 65 91
208 189 184 109 85 83 82 128 107 136 158 125 290 138 133 135 127 120 117 115 106 99 99 105 110 99 117 114 119 124 120 109 98 86 77 99 103 88 87 85 92 110 18 19
146 131 117 186 177 167 135 134 154 191 184 198 183 175 141 117 115 115 114 134 137 145 141 132 121 116 123 125 125 124 122 133 128 124 123 123 134 139 130 124 134 173 188 234
105 216 195 242 202 196 207 191 184 176 164 177 181 163 145 134 123 124 114 59 86 93 78 90 113 91 95 123 122 114 108 101 137 135 158 160 147 145 136 152 169 202 251 262
166 196 183 179 176 193 211 211 188 174 181 181 140 146 164 168 159 150 135 106 100 85 78 238 228 174 166 138 133 136 147 135 124 150 126 142 173 168 165 157 162 179 233 255
183 203 220 193 182 183 178 179 193 171 157 151 148 173 180 137 141 148 141 132 144 165 205 184 216 186 166 156 145 142 148 147 150 148 156 146 123 140 152 158 172 198 218 238
165 188 137 146 137 161 180 193 150 155 162 141 126 141 174 191 168 156 132 200 201 192 147 183 180 169 173 174 150 149 153 161 163 162 164 164 162 171 169 173 190 209 212 227
184 172 180 169 182 233 192 153 147 161 166 150 164 182 185 142 163 136 138 195 239 189 180 184 161 188 192 145 139 136 139 141 152 160 160 159 150 170 195 202 219 220 226 229
163 169 177 170 175 170 178 153 142 136 153 158 157 152 152 172 169 232 238 201 253 169 167 191 190 182 170 153 129 128 133 142 147 151 166 168 175 183 207 208 217 215 216 224
163 160 152 174 172 166 144 128 140 156 167 176 180 180 185 183 169 160 232 220 182 191 187 194 188 173 159 145 155 164 168 165 163 163 167 174 193 204 217 225 237 240 254 255
146 154 140 111 116 107 155 208 171 175 167 154 147 141 142 145 299 254 290 275 180 189 186 175 194 181 149 140 148 157 172 184 186 182 186 186 193 193 211 213 235 238 255 262
147 139 135 150 169 192 152 149 142 170 150 161 179 193 175 139 163 236 188 207 192 167 174 198 198 173 156 172 180 191 201 194 192 183 190 184 186 198 213 212 230 238 245 246
161 175 176 185 186 153 151 158 182 164 155 196 237 202 191 202 204 156 157 165 174 164 198 197 190 156 171 168 181 199 194 182 186 197 186 191 202 215 212 218 231 240 250 258
90 108 110 90 309 145 163 179 163 188 194 190 204 168 177 179 165 141 167 167 172 189 193 207 194 183 185 191 193 198 202 196 190 195 199 193 199 212 219 232 239 247 257 261